User: anonymous   Login
Location: Newark
(45.6167°N, 9.2167°E)
Time: 16:41:25
(UTC+00:00)
Language:

LightSail 2 - Orbit

View from above orbital plane
View from above orbital plane
View from above satellite
View from above satellite

Ground track
Ground track

The orbit data is extracted from the following two-line orbital elements,

1 44420U 19036AC  19315.68442718  .00004986  00000-0  11188-2 0  9990
2 44420  24.0060  47.8491 0017192 284.6083  75.2496 14.53614705 18426
Epoch (UTC): 11 November 2019 16:25:34
Eccentricity: 0.0017192
inclination: 24.0060°
perigee height: 701 km
apogee height: 726 km
right ascension of ascending node: 47.8491°
argument of perigee: 284.6083°
revolutions per day: 14.53614705
mean anomaly at epoch: 75.2496°
orbit number at epoch: 1842

The dashed part of the orbit path shows where the satellite is in the earth's shadow,  

DLR